Header for Extended Forecast Station List Page

Search by: ID | Name | Date | Parm | Value | Avg | % Avg
Sort by: ID | Name | Date | Parm | Value | Avg | % Avg

Enter search or view all records.

Click on id for station plot
#IDNameDateParmValueAvg% Avg
0HWRI1BIG LOST-AT HOWELL RANCH NEAR CHILLY04-22-2019DISCHARGE (KAF)208159131
1MACI1BIG LOST-MACKAY RESERVOIR NEAR MACKAY04-22-2019INFLOW (KAF)181159114
2HALI1BIG WOOD-AT HAILEY04-22-2019DISCHARGE (KAF)263220119
3MAGI1BIG WOOD-MAGIC DAM04-22-2019INFLOW (KAF)237191124
4BITM8BITTERROOT-NEAR MISSOULA04-22-2019DISCHARGE (KAF)11531142101
5BONM8BLACKFOOT-NEAR BONNER04-22-2019DISCHARGE (KAF)72176095
6BIGI1BOISE-AT GLENWOOD BRIDGE04-22-2019DISCHARGE (KAF)739433171
7LUCI1BOISE-LUCKY PEAK DAM04-22-2019INFLOW (KAF)1502MM
8PARI1BOISE-NEAR PARMA04-22-2019DISCHARGE (KAF)710384185
9HOTI1BRUNEAU-NEAR HOT SPRINGS04-22-2019DISCHARGE (KAF)203154132
10BULO3BULLY CREEK-BULLY CREEK DAM04-22-2019INFLOW (KAF)1011065
11BUDW1BUMPING-BUMPING LAKE DAM04-22-2019INFLOW (KAF)7810574
12CHDW1CHELAN-LAKE CHELAN DAM04-22-2019INFLOW (KAF)64296267
13ABOM8CLARK FORK-ABOVE MISSOULA04-22-2019DISCHARGE (KAF)14731336110
14DLGM8CLARK FORK-AT DEER LODGE04-22-2019DISCHARGE (KAF)9170131
15SRGM8CLARK FORK-AT ST REGIS04-22-2019DISCHARGE (KAF)3304334899
16BELM8CLARK FORK-BELOW MISSOULA04-22-2019DISCHARGE (KAF)26282519104
17CABI1CLARK FORK-CABINET GORGE DAM04-22-2019INFLOW (KAF)7990881091
18NOXM8CLARK FORK-NOXON RAPIDS DAM04-22-2019INFLOW (KAF)7252832187
19DRMM8CLARK FORK-NR DRUMMOND04-22-2019DISCHARGE (KAF)366MM
20CLUW1CLE ELUM-CLE ELUM LAKE04-22-2019INFLOW (KAF)24634571
21ORFI1CLEARWATER-AT OROFINO04-22-2019DISCHARGE (KAF)39994011100
22SPDI1CLEARWATER-AT SPALDING04-22-2019DISCHARGE (KAF)5476595792
23COEI1COEUR D ALENE-COEUR D ALENE LAKE04-22-2019INFLOW (KAF)1496196876
24CIBW1COLUMBIA-AT INTL BOUNDARY04-22-2019DISCHARGE (KAF)24578MM
25BONO3COLUMBIA-BONNEVILLE DAM04-22-2019INFLOW (KAF)505225832487
26CHJW1COLUMBIA-CHIEF JOSEPH DAM04-22-2019INFLOW (KAF)254733134881
27GCDW1COLUMBIA-GRAND COULEE DAM04-22-2019INFLOW (KAF)275504165566
28JDAO3COLUMBIA-JOHN DAY DAM04-22-2019INFLOW (KAF)495236315178
29MCDW1COLUMBIA-MCNARY DAM04-22-2019INFLOW (KAF)474566153777
30PRWW1COLUMBIA-PRIEST RAPIDS DAM04-22-2019INFLOW (KAF)281824220267
31RRHW1COLUMBIA-ROCKY REACH DAM04-22-2019INFLOW (KAF)271523448579
32TDAO3COLUMBIA-THE DALLES DAM04-22-2019INFLOW (KAF)498015673188
33WANW1COLUMBIA-WANAPUM DAM04-22-2019INFLOW (KAF)281824134468
34WELW1COLUMBIA-WELLS DAM04-22-2019INFLOW (KAF)267733392179
35DEDI1DEADWOOD-NEAR LOWMAN04-22-2019INFLOW (KAF)138125110
36MODO3DESCHUTES-AT MOODY NR BIGGS04-22-2019DISCHARGE (KAF)12581250101
37ARDW1ENTIAT-NEAR ARDENVOIR04-22-2019DISCHARGE (KAF)12719167
38CHEI1FALL RIVER-NEAR CHESTER04-22-2019DISCHARGE (KAF)403298135
39CFMM8FLATHEAD-AT COLUMBIA FALLS04-22-2019DISCHARGE (KAF)3569394690
40KERM8FLATHEAD-KERR DAM04-22-2019INFLOW (KAF)4135491284
41TRYO3GRANDE RONDE-TROY04-22-2019DISCHARGE (KAF)1162993117
42REXI1HENRYS FORK-AT REXBURG04-22-2019DISCHARGE (KAF)906679133
43ANTI1HENRYS FORK-AT ST. ANTHONY04-22-2019DISCHARGE (KAF)813593137
44IPDI1HENRYS FORK-ISLAND PARK DAM04-22-2019INFLOW (KAF)257207124
45HODO3HOOD-NEAR TUCKER BRIDGE04-22-2019DISCHARGE (KAF)14717783
46SERO3JOHN DAY-AT SERVICE CK04-22-2019DISCHARGE (KAF)849564150
47KADW1KACHESS-KACHESS DAM04-22-2019INFLOW (KAF)588766
48LAUW1KETTLE-AT LAURIER04-22-2019DISCHARGE (KAF)1141159372
49PITW1KLICKITAT-NEAR PITT04-22-2019DISCHARGE (KAF)33840484
50BFEI1KOOTENAI-AT BONNERS FERRY04-22-2019STAGE (FT)MMM
51LEOI1KOOTENAI-AT LEONIA04-22-2019DISCHARGE (KAF)3834521674
52LYDM8KOOTENAI-LIBBY DAM04-22-2019INFLOW (KAF)4009576170
53LWRI1LITTLE WOOD-LITTLE WOOD DAM04-22-2019INFLOW (KAF)9366143
54BERO3MALHEUR-AGENCY VALLEY DAM04-22-2019INFLOW (KAF)4328157
55VALO3MALHEUR-NEAR VALE04-22-2019DISCHARGE (KAF)5036137
56WRMO3MALHEUR-WARM SPRINGS DAM04-22-2019INFLOW (KAF)8318455
57MYKO3MCKAY CREEK-NEAR PILOT ROCK04-22-2019DISCHARGE (KAF)2810273
58PATW1METHOW-NEAR PATEROS04-22-2019DISCHARGE (KAF)51480264
59WGCM8MF FLATHEAD-NEAR WEST GLACIER04-22-2019DISCHARGE (KAF)1356150090
60CLFW1NACHES-NEAR CLIFFDEL04-22-2019DISCHARGE (KAF)26032081
61NACW1NACHES-NEAR NACHES04-22-2019DISCHARGE (KAF)43745197
62DWRI1NF CLEARWATER-DWORSHAK DAM04-22-2019INFLOW (KAF)1941224986
63FCFM8NF FLATHEAD-NEAR COLUMBIA FALLS04-22-2019DISCHARGE (KAF)1073154869
64MONO3NF JOHN DAY-AT MONUMENT04-22-2019DISCHARGE (KAF)558405138
65CSDI1NF PAYETTE-CASCADE DAM04-22-2019INFLOW (KAF)549425129
66TONW1OKANOGAN-NEAR TONASKET04-22-2019DISCHARGE (KAF)777138756
67OWYO3OWYHEE-OWYHEE DAM04-22-2019INFLOW (KAF)238193124
68EMMI1PAYETTE-NEAR EMMETT04-22-2019DISCHARGE (KAF)14031076130
69ALFW1PEND OREILLE-ALBENI FALLS DAM04-22-2019INFLOW (KAF)87211015586
70HOPI1PEND OREILLE-PEND OREILLE LAKE NR HOPE04-22-2019LAKE ELEVATION (FT)MMM
71PIHI1PORTNEUF-AT POCATELLO04-22-2019DISCHARGE (KAF)8360139
72PRTI1PRIEST-NEAR PRIEST RIVER04-22-2019DISCHARGE (KAF)43768764
73RCCM8ROCK CREEK-NEAR CLINTON04-22-2019DISCHARGE (KAF)321251128
74WHBI1SALMON-AT WHITEBIRD04-22-2019DISCHARGE (KAF)5243542997
75ARAI1SF BOISE-ANDERSON RANCH DAM04-22-2019INFLOW (KAF)520447116
76HHWM8SF FLATHEAD-HUNGRY HORSE DAM04-22-2019INFLOW (KAF)1562179987
77PLDI1SF SNAKE-PALISADES DAM04-22-2019INFLOW (KAF)32882968111
78SIFI1SNAKE-AB EAGLE ROCK NR IDAHO FALLS04-22-2019DISCHARGE (KAF)29532441121
79AFRI1SNAKE-AMERICAN FALLS RESERVOIR04-22-2019INFLOW (KAF)27772204126
80SNAI1SNAKE-AT BLACKFOOT04-22-2019DISCHARGE (KAF)22121708130
81MILI1SNAKE-AT MILNER04-22-2019DISCHARGE (KAF)1024252406
82WEII1SNAKE-AT WEISER04-22-2019DISCHARGE (KAF)57724196138
83SWAI1SNAKE-BELOW SWAN FALLS04-22-2019DISCHARGE (KAF)29222156135
84BRNI1SNAKE-BROWNLEE DAM04-22-2019INFLOW (KAF)62514502139
85IHDW1SNAKE-ICE HARBOR DAM04-22-2019INFLOW (KAF)1839017716104
86JLKW4SNAKE-JACKSON LAKE AT DAM04-22-2019INFLOW (KAF)813755108
87LGSW1SNAKE-LITTLE GOOSE DAM04-22-2019INFLOW (KAF)1825217778103
88LGDW1SNAKE-LOWER GRANITE DAM04-22-2019INFLOW (KAF)1825217761103
89LMNW1SNAKE-LOWER MONUMENTAL DAM04-22-2019INFLOW (KAF)1839017817103
90ALPW4SNAKE-NEAR ALPINE04-22-2019DISCHARGE (KAF)23732094113
91ANAW1SNAKE-NEAR ANATONE04-22-2019DISCHARGE (KAF)1277711745109
92BFTI1SNAKE-NEAR BLACKFOOT04-22-2019DISCHARGE (KAF)21891591138
93HEII1SNAKE-NEAR HEISE04-22-2019DISCHARGE (KAF)34023094110
94JKSW4SNAKE-NEAR JACKSON04-22-2019DISCHARGE (KAF)19721632121
95SHYI1SNAKE-NEAR SHELLEY04-22-2019DISCHARGE (KAF)27932214126
96LLKW1SPOKANE-AT LONGLAKE04-22-2019INFLOW (KAF)1780245373
97SPOW1SPOKANE-AT SPOKANE04-22-2019DISCHARGE (KAF)1556MM
98SJMI1ST JOE-AT ST MARIES04-22-2019STAGE (FT)MMM
99SATI1ST MARIES-NEAR SANTA04-22-2019DISCHARGE (KAF)609563
100STRM8ST. REGIS-NEAR ST. REGIS04-22-2019DISCHARGE (KAF)18021683
101TNAW1TEANAWAY-BELOW FORKS04-22-2019DISCHARGE (KAF)628474
102TEAI1TETON-NEAR ST. ANTHONY04-22-2019DISCHARGE (KAF)378340111
103RILW1TIETON-RIMROCK LAKE NEAR RIMROCK04-22-2019INFLOW (KAF)14918083
104PDTO3UMATILLA-AT PENDLETON04-22-2019DISCHARGE (KAF)14584173
105GIBO3UMATILLA-NEAR GIBBON04-22-2019DISCHARGE (KAF)7548158
106UMAO3UMATILLA-NEAR UMATILLA04-22-2019DISCHARGE (KAF)24739634
107TCHW1WALLA WALLA-NEAR TOUCHET04-22-2019DISCHARGE (KAF)12669183
108WSRI1WEISER-NEAR WEISER04-22-2019DISCHARGE (KAF)358278129
109PESW1WENATCHEE-AT PESHASTIN04-22-2019DISCHARGE (KAF)987133274
110UNDW1WHITE SALMON-NEAR UNDERWOOD04-22-2019DISCHARGE (KAF)20227673
111RIDI1WILLOW CREEK-RIRIE DAM04-22-2019INFLOW (KAF)6734198
112EASW1YAKIMA-AT EASTON04-22-2019DISCHARGE (KAF)10290114
113KIOW1YAKIMA-AT KIONA04-22-2019DISCHARGE (KAF)62271487
114UMTW1YAKIMA-AT UMTANUM04-22-2019DISCHARGE (KAF)77280096
115KEDW1YAKIMA-KEECHELUS LAKE04-22-2019INFLOW (KAF)679571
116PARW1YAKIMA-NEAR PARKER04-22-2019DISCHARGE (KAF)32937288